Year,Month,Day,Hour,Minute,Value (Times are PST for temperature in C)
2005,07,26,00,00,14.20
2005,07,26,00,01,14.20
2005,07,26,00,02,14.20
2005,07,26,00,03,14.20
2005,07,26,00,04,14.20
2005,07,26,00,05,14.20
2005,07,26,00,06,14.20
2005,07,26,00,07,14.20
2005,07,26,00,08,14.10
2005,07,26,00,09,14.10
2005,07,26,00,10,14.10
2005,07,26,00,11,14.10
2005,07,26,00,12,14.10
2005,07,26,00,13,14.10
2005,07,26,00,14,14.00
2005,07,26,00,15,14.00
2005,07,26,00,16,13.90
2005,07,26,00,17,13.80
2005,07,26,00,18,13.80
2005,07,26,00,19,13.70
2005,07,26,00,20,13.70
2005,07,26,00,21,13.70
2005,07,26,00,22,13.60
2005,07,26,00,23,13.50
2005,07,26,00,24,13.50
2005,07,26,00,25,13.50
2005,07,26,00,26,13.40
2005,07,26,00,27,13.30
2005,07,26,00,28,13.30
2005,07,26,00,29,13.30
2005,07,26,00,30,13.20
2005,07,26,00,31,13.20
2005,07,26,00,32,13.10
2005,07,26,00,33,13.10
2005,07,26,00,34,13.00
2005,07,26,00,35,13.00
2005,07,26,00,36,13.00
2005,07,26,00,37,13.00
2005,07,26,00,38,13.00
2005,07,26,00,39,13.00
2005,07,26,00,40,13.00
2005,07,26,00,41,13.00
2005,07,26,00,42,13.10
2005,07,26,00,43,13.10
2005,07,26,00,44,13.10
2005,07,26,00,45,13.20
2005,07,26,00,46,13.20
2005,07,26,00,47,13.20
2005,07,26,00,48,13.30
2005,07,26,00,49,13.30
2005,07,26,00,50,13.30
2005,07,26,00,51,13.30
2005,07,26,00,52,13.30
2005,07,26,00,53,13.30
2005,07,26,00,54,13.40
2005,07,26,00,55,13.40
2005,07,26,00,56,13.40
2005,07,26,00,57,13.40
2005,07,26,00,58,13.40
2005,07,26,00,59,13.50
2005,07,26,01,00,13.50
2005,07,26,01,01,13.50
2005,07,26,01,02,13.50
2005,07,26,01,03,13.50
2005,07,26,01,04,13.50
2005,07,26,01,05,13.50
2005,07,26,01,06,13.50
2005,07,26,01,07,13.50
2005,07,26,01,08,13.50
2005,07,26,01,09,13.50
2005,07,26,01,10,13.50
2005,07,26,01,11,13.50
2005,07,26,01,12,13.50
2005,07,26,01,13,13.60
2005,07,26,01,14,13.60
2005,07,26,01,15,13.60
2005,07,26,01,16,13.60
2005,07,26,01,17,13.50
2005,07,26,01,18,13.50
2005,07,26,01,19,13.50
2005,07,26,01,20,13.50
2005,07,26,01,21,13.50
2005,07,26,01,22,13.50
2005,07,26,01,23,13.50
2005,07,26,01,24,13.50
2005,07,26,01,25,13.50
2005,07,26,01,26,13.50
2005,07,26,01,27,13.50
2005,07,26,01,28,13.50
2005,07,26,01,29,13.60
2005,07,26,01,30,13.60
2005,07,26,01,31,13.60
2005,07,26,01,32,13.60
2005,07,26,01,33,13.60
2005,07,26,01,34,13.60
2005,07,26,01,35,13.60
2005,07,26,01,36,13.60
2005,07,26,01,37,13.60
2005,07,26,01,38,13.60
2005,07,26,01,39,13.60
2005,07,26,01,40,13.60
2005,07,26,01,41,13.60
2005,07,26,01,42,13.60
2005,07,26,01,43,13.70
2005,07,26,01,44,13.70
2005,07,26,01,45,13.70
2005,07,26,01,46,13.60
2005,07,26,01,47,13.60
2005,07,26,01,48,13.60
2005,07,26,01,49,13.60
2005,07,26,01,50,13.60
2005,07,26,01,51,13.60
2005,07,26,01,52,13.70
2005,07,26,01,53,13.70
2005,07,26,01,54,13.70
2005,07,26,01,55,13.70
2005,07,26,01,56,13.70
2005,07,26,01,57,13.70
2005,07,26,01,58,13.70
2005,07,26,01,59,13.70
2005,07,26,02,00,13.70
2005,07,26,02,01,13.70
2005,07,26,02,02,13.70
2005,07,26,02,03,13.70
2005,07,26,02,04,13.70
2005,07,26,02,05,13.70
2005,07,26,02,06,13.70
2005,07,26,02,07,13.70
2005,07,26,02,08,13.70
2005,07,26,02,09,13.70
2005,07,26,02,10,13.60
2005,07,26,02,11,13.60
2005,07,26,02,12,13.50
2005,07,26,02,13,13.50
2005,07,26,02,14,13.40
2005,07,26,02,15,13.40
2005,07,26,02,16,13.30
2005,07,26,02,17,13.30
2005,07,26,02,18,13.30
2005,07,26,02,19,13.30
2005,07,26,02,20,13.30
2005,07,26,02,21,13.20
2005,07,26,02,22,13.20
2005,07,26,02,23,13.20
2005,07,26,02,24,13.20
2005,07,26,02,25,13.20
2005,07,26,02,26,13.20
2005,07,26,02,27,13.20
2005,07,26,02,28,13.20
2005,07,26,02,29,13.20
2005,07,26,02,30,13.20
2005,07,26,02,31,13.20
2005,07,26,02,32,13.20
2005,07,26,02,33,13.20
2005,07,26,02,34,13.20
2005,07,26,02,35,13.20
2005,07,26,02,36,13.30
2005,07,26,02,37,13.30
2005,07,26,02,38,13.30
2005,07,26,02,39,13.30
2005,07,26,02,40,13.30
2005,07,26,02,41,13.30
2005,07,26,02,42,13.30
2005,07,26,02,43,13.30
2005,07,26,02,44,13.40
2005,07,26,02,45,13.40
2005,07,26,02,46,13.50
2005,07,26,02,47,13.50
2005,07,26,02,48,13.50
2005,07,26,02,49,13.60
2005,07,26,02,50,13.60
2005,07,26,02,51,13.60
2005,07,26,02,52,13.60
2005,07,26,02,53,13.60
2005,07,26,02,54,13.60
2005,07,26,02,55,13.60
2005,07,26,02,56,13.60
2005,07,26,02,57,13.70
2005,07,26,02,58,13.70
2005,07,26,02,59,13.80
2005,07,26,03,00,13.80
2005,07,26,03,01,13.90
2005,07,26,03,02,14.00
2005,07,26,03,03,14.00
2005,07,26,03,04,14.10
2005,07,26,03,05,14.10
2005,07,26,03,06,14.20
2005,07,26,03,07,14.20
2005,07,26,03,08,14.20
2005,07,26,03,09,14.20
2005,07,26,03,10,14.20
2005,07,26,03,11,14.30
2005,07,26,03,12,14.30
2005,07,26,03,13,14.40
2005,07,26,03,14,14.40
2005,07,26,03,15,14.40
2005,07,26,03,16,14.40
2005,07,26,03,17,14.40
2005,07,26,03,18,14.50
2005,07,26,03,19,14.50
2005,07,26,03,20,14.60
2005,07,26,03,21,14.60
2005,07,26,03,22,14.60
2005,07,26,03,23,14.60
2005,07,26,03,24,14.60
2005,07,26,03,25,14.60
2005,07,26,03,26,14.60
2005,07,26,03,27,14.60
2005,07,26,03,28,14.60
2005,07,26,03,29,14.60
2005,07,26,03,30,14.60
2005,07,26,03,31,14.60
2005,07,26,03,32,14.50
2005,07,26,03,33,14.40
2005,07,26,03,34,14.30
2005,07,26,03,35,14.20
2005,07,26,03,36,14.10
2005,07,26,03,37,13.90
2005,07,26,03,38,13.70
2005,07,26,03,39,13.60
2005,07,26,03,40,13.50
2005,07,26,03,41,13.50
2005,07,26,03,42,13.50
2005,07,26,03,43,13.30
2005,07,26,03,44,13.30
2005,07,26,03,45,13.20
2005,07,26,03,46,13.20
2005,07,26,03,47,13.20
2005,07,26,03,48,13.10
2005,07,26,03,49,13.10
2005,07,26,03,50,13.10
2005,07,26,03,51,13.10
2005,07,26,03,52,13.00
2005,07,26,03,53,13.00
2005,07,26,03,54,13.00
2005,07,26,03,55,13.00
2005,07,26,03,56,13.00
2005,07,26,03,57,13.00
2005,07,26,03,58,12.90
2005,07,26,03,59,12.90
2005,07,26,04,00,12.90
2005,07,26,04,01,12.90
2005,07,26,04,02,12.90
2005,07,26,04,03,13.00
2005,07,26,04,04,13.00
2005,07,26,04,05,13.00
2005,07,26,04,06,13.00
2005,07,26,04,07,13.10
2005,07,26,04,08,13.10
2005,07,26,04,09,13.10
2005,07,26,04,10,13.10
2005,07,26,04,11,13.10
2005,07,26,04,12,13.10
2005,07,26,04,13,13.20
2005,07,26,04,14,13.20
2005,07,26,04,15,13.20
2005,07,26,04,16,13.20
2005,07,26,04,17,13.30
2005,07,26,04,18,13.30
2005,07,26,04,19,13.30
2005,07,26,04,20,13.30
2005,07,26,04,21,13.30
2005,07,26,04,22,13.30
2005,07,26,04,23,13.30
2005,07,26,04,24,13.30
2005,07,26,04,25,13.30
2005,07,26,04,26,13.30
2005,07,26,04,27,13.30
2005,07,26,04,28,13.30
2005,07,26,04,29,13.30
2005,07,26,04,30,13.30
2005,07,26,04,31,13.30
2005,07,26,04,32,13.30
2005,07,26,04,33,13.30
2005,07,26,04,34,13.30
2005,07,26,04,35,13.30
2005,07,26,04,36,13.30
2005,07,26,04,37,13.20
2005,07,26,04,38,13.20
2005,07,26,04,39,13.20
2005,07,26,04,40,13.20
2005,07,26,04,41,13.20
2005,07,26,04,42,13.10
2005,07,26,04,43,13.10
2005,07,26,04,44,13.10
2005,07,26,04,45,13.10
2005,07,26,04,46,13.10
2005,07,26,04,47,13.10
2005,07,26,04,48,13.10
2005,07,26,04,49,13.10
2005,07,26,04,50,13.10
2005,07,26,04,51,13.00
2005,07,26,04,52,13.00
2005,07,26,04,53,13.00
2005,07,26,04,54,13.00
2005,07,26,04,55,13.00
2005,07,26,04,56,12.90
2005,07,26,04,57,12.90
2005,07,26,04,58,12.90
2005,07,26,04,59,12.80
2005,07,26,05,00,12.80
2005,07,26,05,01,12.80
2005,07,26,05,02,12.80
2005,07,26,05,03,12.80
2005,07,26,05,04,12.80
2005,07,26,05,05,12.70
2005,07,26,05,06,12.70
2005,07,26,05,07,12.70
2005,07,26,05,08,12.70
2005,07,26,05,09,12.70
2005,07,26,05,10,12.70
2005,07,26,05,11,12.70
2005,07,26,05,12,12.70
2005,07,26,05,13,12.70
2005,07,26,05,14,12.70
2005,07,26,05,15,12.70
2005,07,26,05,16,12.70
2005,07,26,05,17,12.70
2005,07,26,05,18,12.60
2005,07,26,05,19,12.60
2005,07,26,05,20,12.60
2005,07,26,05,21,12.60
2005,07,26,05,22,12.60
2005,07,26,05,23,12.50
2005,07,26,05,24,12.50
2005,07,26,05,25,12.50
2005,07,26,05,26,12.50
2005,07,26,05,27,12.40
2005,07,26,05,28,12.40
2005,07,26,05,29,12.40
2005,07,26,05,30,12.40
2005,07,26,05,31,12.30
2005,07,26,05,32,12.30
2005,07,26,05,33,12.30
2005,07,26,05,34,12.30
2005,07,26,05,35,12.30
2005,07,26,05,36,12.30
2005,07,26,05,37,12.30
2005,07,26,05,38,12.30
2005,07,26,05,39,12.30
2005,07,26,05,40,12.20
2005,07,26,05,41,12.20
2005,07,26,05,42,12.20
2005,07,26,05,43,12.20
2005,07,26,05,44,12.20
2005,07,26,05,45,12.20
2005,07,26,05,46,12.20
2005,07,26,05,47,12.20
2005,07,26,05,48,12.10
2005,07,26,05,49,12.10
2005,07,26,05,50,12.10
2005,07,26,05,51,12.20
2005,07,26,05,52,12.10
2005,07,26,05,53,12.10
2005,07,26,05,54,12.10
2005,07,26,05,55,12.20
2005,07,26,05,56,12.20
2005,07,26,05,57,12.20
2005,07,26,05,58,12.20
2005,07,26,05,59,12.20
2005,07,26,06,00,12.20
2005,07,26,06,01,12.20
2005,07,26,06,02,12.20
2005,07,26,06,03,12.20
2005,07,26,06,04,12.20
2005,07,26,06,05,12.20
2005,07,26,06,06,12.20
2005,07,26,06,07,12.20
2005,07,26,06,08,12.20
2005,07,26,06,09,12.20
2005,07,26,06,10,12.20
2005,07,26,06,11,12.20
2005,07,26,06,12,12.20
2005,07,26,06,13,12.30
2005,07,26,06,14,12.30
2005,07,26,06,15,12.30
2005,07,26,06,16,12.30
2005,07,26,06,17,12.30
2005,07,26,06,18,12.30
2005,07,26,06,19,12.30
2005,07,26,06,20,12.30
2005,07,26,06,21,12.30
2005,07,26,06,22,12.40
2005,07,26,06,23,12.50
2005,07,26,06,24,12.50
2005,07,26,06,25,12.60
2005,07,26,06,26,12.70
2005,07,26,06,27,12.80
2005,07,26,06,28,12.80
2005,07,26,06,29,12.90
2005,07,26,06,30,12.90
2005,07,26,06,31,13.00
2005,07,26,06,32,13.10
2005,07,26,06,33,13.10
2005,07,26,06,34,13.10
2005,07,26,06,35,13.20
2005,07,26,06,36,13.20
2005,07,26,06,37,13.20
2005,07,26,06,38,13.20
2005,07,26,06,39,13.30
2005,07,26,06,40,13.30
2005,07,26,06,41,13.40
2005,07,26,06,42,13.50
2005,07,26,06,43,13.50
2005,07,26,06,44,13.60
2005,07,26,06,45,13.70
2005,07,26,06,46,13.70
2005,07,26,06,47,13.70
2005,07,26,06,48,13.80
2005,07,26,06,49,13.90
2005,07,26,06,50,13.90
2005,07,26,06,51,14.00
2005,07,26,06,52,14.00
2005,07,26,06,53,14.00
2005,07,26,06,54,14.00
2005,07,26,06,55,14.00
2005,07,26,06,56,14.00
2005,07,26,06,57,14.00
2005,07,26,06,58,14.00
2005,07,26,06,59,14.10
2005,07,26,07,00,14.10
2005,07,26,07,01,14.10
2005,07,26,07,02,14.10
2005,07,26,07,03,14.10
2005,07,26,07,04,14.10
2005,07,26,07,05,14.10
2005,07,26,07,06,14.10
2005,07,26,07,07,14.10
2005,07,26,07,08,14.10
2005,07,26,07,09,14.20
2005,07,26,07,10,14.20
2005,07,26,07,11,14.30
2005,07,26,07,12,14.30
2005,07,26,07,13,14.40
2005,07,26,07,14,14.40
2005,07,26,07,15,14.50
2005,07,26,07,16,14.50
2005,07,26,07,17,14.60
2005,07,26,07,18,14.60
2005,07,26,07,19,14.70
2005,07,26,07,20,14.70
2005,07,26,07,21,14.70
2005,07,26,07,22,14.70
2005,07,26,07,23,14.80
2005,07,26,07,24,14.80
2005,07,26,07,25,14.80
2005,07,26,07,26,14.80
2005,07,26,07,27,14.80
2005,07,26,07,28,14.90
2005,07,26,07,29,14.90
2005,07,26,07,30,15.00
2005,07,26,07,31,15.10
2005,07,26,07,32,15.10
2005,07,26,07,33,15.20
2005,07,26,07,34,15.30
2005,07,26,07,35,15.30
2005,07,26,07,36,15.40
2005,07,26,07,37,15.40
2005,07,26,07,38,15.50
2005,07,26,07,39,15.50
2005,07,26,07,40,15.60
2005,07,26,07,41,15.60
2005,07,26,07,42,15.70
2005,07,26,07,43,15.70
2005,07,26,07,44,15.70
2005,07,26,07,45,15.80
2005,07,26,07,46,15.80
2005,07,26,07,47,15.80
2005,07,26,07,48,15.90
2005,07,26,07,49,16.00
2005,07,26,07,50,16.10
2005,07,26,07,51,16.20
2005,07,26,07,52,16.20
2005,07,26,07,53,16.30
2005,07,26,07,54,16.30
2005,07,26,07,55,16.40
2005,07,26,07,56,16.40
2005,07,26,07,57,16.40
2005,07,26,07,58,16.50
2005,07,26,07,59,16.60
2005,07,26,08,00,16.60
2005,07,26,08,01,16.70
2005,07,26,08,02,16.70
2005,07,26,08,03,16.80
2005,07,26,08,04,16.90
2005,07,26,08,05,17.00
2005,07,26,08,06,17.00
2005,07,26,08,07,17.10
2005,07,26,08,08,17.20
2005,07,26,08,09,17.30
2005,07,26,08,10,17.30
2005,07,26,08,11,17.30
2005,07,26,08,12,17.40
2005,07,26,08,13,17.50
2005,07,26,08,14,17.60
2005,07,26,08,15,17.70
2005,07,26,08,16,17.70
2005,07,26,08,17,17.80
2005,07,26,08,18,17.90
2005,07,26,08,19,17.90
2005,07,26,08,20,18.00
2005,07,26,08,21,18.10
2005,07,26,08,22,18.10
2005,07,26,08,23,18.20
2005,07,26,08,24,18.20
2005,07,26,08,25,18.30
2005,07,26,08,26,18.30
2005,07,26,08,27,18.40
2005,07,26,08,28,18.40
2005,07,26,08,29,18.40
2005,07,26,08,30,18.50
2005,07,26,08,31,18.50
2005,07,26,08,32,18.50
2005,07,26,08,33,18.60
2005,07,26,08,34,18.60
2005,07,26,08,35,18.60
2005,07,26,08,36,18.70
2005,07,26,08,37,18.70
2005,07,26,08,38,18.80
2005,07,26,08,39,18.90
2005,07,26,08,40,18.90
2005,07,26,08,41,19.00
2005,07,26,08,42,19.10
2005,07,26,08,43,19.10
2005,07,26,08,44,19.00
2005,07,26,08,45,18.90
2005,07,26,08,46,18.90
2005,07,26,08,47,19.00
2005,07,26,08,48,19.10
2005,07,26,08,49,19.10
2005,07,26,08,50,19.10
2005,07,26,08,51,19.10
2005,07,26,08,52,19.10
2005,07,26,08,53,19.10
2005,07,26,08,54,19.10
2005,07,26,08,55,19.10
2005,07,26,08,56,19.10
2005,07,26,08,57,19.10
2005,07,26,08,58,19.10
2005,07,26,08,59,19.20
2005,07,26,09,00,19.20
2005,07,26,09,01,19.20
2005,07,26,09,02,19.20
2005,07,26,09,03,19.20
2005,07,26,09,04,19.20
2005,07,26,09,05,19.30
2005,07,26,09,06,19.30
2005,07,26,09,07,19.30
2005,07,26,09,08,19.30
2005,07,26,09,09,19.30
2005,07,26,09,10,19.20
2005,07,26,09,11,19.30
2005,07,26,09,12,19.30
2005,07,26,09,13,19.30
2005,07,26,09,14,19.40
2005,07,26,09,15,19.30
2005,07,26,09,16,19.30
2005,07,26,09,17,19.20
2005,07,26,09,18,19.10
2005,07,26,09,19,19.00
2005,07,26,09,20,18.90
2005,07,26,09,21,18.90
2005,07,26,09,22,18.90
2005,07,26,09,23,18.90
2005,07,26,09,24,18.90
2005,07,26,09,25,18.90
2005,07,26,09,26,18.90
2005,07,26,09,27,18.90
2005,07,26,09,28,18.90
2005,07,26,09,29,18.90
2005,07,26,09,30,18.90
2005,07,26,09,31,18.90
2005,07,26,09,32,19.00
2005,07,26,09,33,19.10
2005,07,26,09,34,19.10
2005,07,26,09,35,19.10
2005,07,26,09,36,19.10
2005,07,26,09,37,19.00
2005,07,26,09,38,18.90
2005,07,26,09,39,19.00
2005,07,26,09,40,19.10
2005,07,26,09,41,19.10
2005,07,26,09,42,19.10
2005,07,26,09,43,19.10
2005,07,26,09,44,19.10
2005,07,26,09,45,19.10
2005,07,26,09,46,19.10
2005,07,26,09,47,19.10
2005,07,26,09,48,19.10
2005,07,26,09,49,19.10
2005,07,26,09,50,19.20
2005,07,26,09,51,19.20
2005,07,26,09,52,19.20
2005,07,26,09,53,19.20
2005,07,26,09,54,19.20
2005,07,26,09,55,19.20
2005,07,26,09,56,19.20
2005,07,26,09,57,19.10
2005,07,26,09,58,19.10
2005,07,26,09,59,19.10
2005,07,26,10,00,19.10
2005,07,26,10,01,19.00
2005,07,26,10,02,19.00
2005,07,26,10,03,19.10
2005,07,26,10,04,19.00
2005,07,26,10,05,18.90
2005,07,26,10,06,19.00
2005,07,26,10,07,19.10
2005,07,26,10,08,19.10
2005,07,26,10,09,19.20
2005,07,26,10,10,19.30
2005,07,26,10,11,19.30
2005,07,26,10,12,19.40
2005,07,26,10,13,19.50
2005,07,26,10,14,19.50
2005,07,26,10,15,19.50
2005,07,26,10,16,19.60
2005,07,26,10,17,19.70
2005,07,26,10,18,19.70
2005,07,26,10,19,19.80
2005,07,26,10,20,19.90
2005,07,26,10,21,19.90
2005,07,26,10,22,19.80
2005,07,26,10,23,19.80
2005,07,26,10,24,19.80
2005,07,26,10,25,19.80
2005,07,26,10,26,19.80
2005,07,26,10,27,19.90
2005,07,26,10,28,19.90
2005,07,26,10,29,19.90
2005,07,26,10,30,19.90
2005,07,26,10,31,19.90
2005,07,26,10,32,19.90
2005,07,26,10,33,19.90
2005,07,26,10,34,19.90
2005,07,26,10,35,19.90
2005,07,26,10,36,19.90
2005,07,26,10,37,19.90
2005,07,26,10,38,19.90
2005,07,26,10,39,19.90
2005,07,26,10,40,19.90
2005,07,26,10,41,19.90
2005,07,26,10,42,19.90
2005,07,26,10,43,19.80
2005,07,26,10,44,19.80
2005,07,26,10,45,19.80
2005,07,26,10,46,19.90
2005,07,26,10,47,19.90
2005,07,26,10,48,20.00
2005,07,26,10,49,20.10
2005,07,26,10,50,20.10
2005,07,26,10,51,20.10
2005,07,26,10,52,20.00
2005,07,26,10,53,19.90
2005,07,26,10,54,19.90
2005,07,26,10,55,19.90
2005,07,26,10,56,19.80
2005,07,26,10,57,19.70
2005,07,26,10,58,19.70
2005,07,26,10,59,19.60
2005,07,26,11,00,19.60
2005,07,26,11,01,19.70
2005,07,26,11,02,19.60
2005,07,26,11,03,19.60
2005,07,26,11,04,19.70
2005,07,26,11,05,19.70
2005,07,26,11,06,19.80
2005,07,26,11,07,19.80
2005,07,26,11,08,19.90
2005,07,26,11,09,20.10
2005,07,26,11,10,20.20
2005,07,26,11,11,20.30
2005,07,26,11,12,20.30
2005,07,26,11,13,20.30
2005,07,26,11,14,20.20
2005,07,26,11,15,20.20
2005,07,26,11,16,20.20
2005,07,26,11,17,20.20
2005,07,26,11,18,20.20
2005,07,26,11,19,20.20
2005,07,26,11,20,20.30
2005,07,26,11,21,20.30
2005,07,26,11,22,20.30
2005,07,26,11,23,20.30
2005,07,26,11,24,20.30
2005,07,26,11,25,20.30
2005,07,26,11,26,20.20
2005,07,26,11,27,20.00
2005,07,26,11,28,19.90
2005,07,26,11,29,19.90
2005,07,26,11,30,19.90
2005,07,26,11,31,19.90
2005,07,26,11,32,19.90
2005,07,26,11,33,19.90
2005,07,26,11,34,19.90
2005,07,26,11,35,19.90
2005,07,26,11,36,19.90
2005,07,26,11,37,19.90
2005,07,26,11,38,19.90
2005,07,26,11,39,19.90
2005,07,26,11,40,19.90
2005,07,26,11,41,20.00
2005,07,26,11,42,20.20
2005,07,26,11,43,20.20
2005,07,26,11,44,20.20
2005,07,26,11,45,20.20
2005,07,26,11,46,20.20
2005,07,26,11,47,20.20
2005,07,26,11,48,20.20
2005,07,26,11,49,20.20
2005,07,26,11,50,20.30
2005,07,26,11,51,20.30
2005,07,26,11,52,20.40
2005,07,26,11,53,20.40
2005,07,26,11,54,20.30
2005,07,26,11,55,20.30
2005,07,26,11,56,20.30
2005,07,26,11,57,20.30
2005,07,26,11,58,20.30
2005,07,26,11,59,20.40
2005,07,26,12,00,20.40
2005,07,26,12,01,20.50
2005,07,26,12,02,20.40
2005,07,26,12,03,20.40
2005,07,26,12,04,20.40
2005,07,26,12,05,20.50
2005,07,26,12,06,20.60
2005,07,26,12,07,20.70
2005,07,26,12,08,20.80
2005,07,26,12,09,20.80
2005,07,26,12,10,20.70
2005,07,26,12,11,20.70
2005,07,26,12,12,20.70
2005,07,26,12,13,20.70
2005,07,26,12,14,20.70
2005,07,26,12,15,20.80
2005,07,26,12,16,20.80
2005,07,26,12,17,20.80
2005,07,26,12,18,20.80
2005,07,26,12,19,20.90
2005,07,26,12,20,20.90
2005,07,26,12,21,21.00
2005,07,26,12,22,21.10
2005,07,26,12,23,21.10
2005,07,26,12,24,21.20
2005,07,26,12,25,21.30
2005,07,26,12,26,21.30
2005,07,26,12,27,21.30
2005,07,26,12,28,21.30
2005,07,26,12,29,21.40
2005,07,26,12,30,21.40
2005,07,26,12,31,21.40
2005,07,26,12,32,21.40
2005,07,26,12,33,21.40
2005,07,26,12,34,21.40
2005,07,26,12,35,21.40
2005,07,26,12,36,21.30
2005,07,26,12,37,21.30
2005,07,26,12,38,21.30
2005,07,26,12,39,21.30
2005,07,26,12,40,21.30
2005,07,26,12,41,21.30
2005,07,26,12,42,21.30
2005,07,26,12,43,21.30
2005,07,26,12,44,21.20
2005,07,26,12,45,21.20
2005,07,26,12,46,21.20
2005,07,26,12,47,21.20
2005,07,26,12,48,21.30
2005,07,26,12,49,21.30
2005,07,26,12,50,21.30
2005,07,26,12,51,21.40
2005,07,26,12,52,21.40
2005,07,26,12,53,21.30
2005,07,26,12,54,21.40
2005,07,26,12,55,21.40
2005,07,26,12,56,21.40
2005,07,26,12,57,21.40
2005,07,26,12,58,21.50
2005,07,26,12,59,21.60
2005,07,26,13,00,21.60
2005,07,26,13,01,21.60
2005,07,26,13,02,21.60
2005,07,26,13,03,21.60
2005,07,26,13,04,21.70
2005,07,26,13,05,21.60
2005,07,26,13,06,21.60
2005,07,26,13,07,21.60
2005,07,26,13,08,21.50
2005,07,26,13,09,21.40
2005,07,26,13,10,21.30
2005,07,26,13,11,21.30
2005,07,26,13,12,21.30
2005,07,26,13,13,21.40
2005,07,26,13,14,21.60
2005,07,26,13,15,21.60
2005,07,26,13,16,21.60
2005,07,26,13,17,21.50
2005,07,26,13,18,21.40
2005,07,26,13,19,21.40
2005,07,26,13,20,21.50
2005,07,26,13,21,21.60
2005,07,26,13,22,21.70
2005,07,26,13,23,21.90
2005,07,26,13,24,22.00
2005,07,26,13,25,22.10
2005,07,26,13,26,22.20
2005,07,26,13,27,22.30
2005,07,26,13,28,22.30
2005,07,26,13,29,22.30
2005,07,26,13,30,22.30
2005,07,26,13,31,22.20
2005,07,26,13,32,22.20
2005,07,26,13,33,22.10
2005,07,26,13,34,22.10
2005,07,26,13,35,22.10
2005,07,26,13,36,22.10
2005,07,26,13,37,22.10
2005,07,26,13,38,22.10
2005,07,26,13,39,22.20
2005,07,26,13,40,22.30
2005,07,26,13,41,22.40
2005,07,26,13,42,22.50
2005,07,26,13,43,22.50
2005,07,26,13,44,22.60
2005,07,26,13,45,22.60
2005,07,26,13,46,22.60
2005,07,26,13,47,22.60
2005,07,26,13,48,22.60
2005,07,26,13,49,22.60
2005,07,26,13,50,22.60
2005,07,26,13,51,22.70
2005,07,26,13,52,22.70
2005,07,26,13,53,22.70
2005,07,26,13,54,22.80
2005,07,26,13,55,22.80
2005,07,26,13,56,22.90
2005,07,26,13,57,22.90
2005,07,26,13,58,23.00
2005,07,26,13,59,23.10
2005,07,26,14,00,23.10
2005,07,26,14,01,23.10
2005,07,26,14,02,23.10
2005,07,26,14,03,23.10
2005,07,26,14,04,23.20
2005,07,26,14,05,23.20
2005,07,26,14,06,23.20
2005,07,26,14,07,23.30
2005,07,26,14,08,23.30
2005,07,26,14,09,23.40
2005,07,26,14,10,23.40
2005,07,26,14,11,23.40
2005,07,26,14,12,23.40
2005,07,26,14,13,23.30
2005,07,26,14,14,23.20
2005,07,26,14,15,23.10
2005,07,26,14,16,22.90
2005,07,26,14,17,22.90
2005,07,26,14,18,22.90
2005,07,26,14,19,22.90
2005,07,26,14,20,22.90
2005,07,26,14,21,22.90
2005,07,26,14,22,22.90
2005,07,26,14,23,22.80
2005,07,26,14,24,22.80
2005,07,26,14,25,22.80
2005,07,26,14,26,22.70
2005,07,26,14,27,22.70
2005,07,26,14,28,22.70
2005,07,26,14,29,22.70
2005,07,26,14,30,22.80
2005,07,26,14,31,22.90
2005,07,26,14,32,22.90
2005,07,26,14,33,22.90
2005,07,26,14,34,22.90
2005,07,26,14,35,22.90
2005,07,26,14,36,22.90
2005,07,26,14,37,23.00
2005,07,26,14,38,23.10
2005,07,26,14,40,23.10
2005,07,26,14,41,23.20
2005,07,26,14,42,23.30
2005,07,26,14,43,23.30
2005,07,26,14,44,23.30
2005,07,26,14,45,23.40
2005,07,26,14,46,23.50
2005,07,26,14,47,23.60
2005,07,26,14,48,23.60
2005,07,26,14,49,23.70
2005,07,26,14,50,23.70
2005,07,26,14,51,23.70
2005,07,26,14,52,23.70
2005,07,26,14,53,23.70
2005,07,26,14,54,23.70
2005,07,26,14,55,23.80
2005,07,26,14,56,23.80
2005,07,26,14,57,23.80
2005,07,26,14,58,23.80
2005,07,26,14,59,23.70
2005,07,26,15,00,23.80
2005,07,26,15,01,23.90
2005,07,26,15,02,23.90
2005,07,26,15,03,23.90
2005,07,26,15,04,23.90
2005,07,26,15,05,24.00
2005,07,26,15,06,24.10
2005,07,26,15,07,24.10
2005,07,26,15,08,24.10
2005,07,26,15,09,24.20
2005,07,26,15,10,24.20
2005,07,26,15,11,24.40
2005,07,26,15,12,24.50
2005,07,26,15,13,24.50
2005,07,26,15,14,24.40
2005,07,26,15,15,24.40
2005,07,26,15,16,24.30
2005,07,26,15,17,24.30
2005,07,26,15,18,24.30
2005,07,26,15,19,24.30
2005,07,26,15,20,24.30
2005,07,26,15,21,24.40
2005,07,26,15,22,24.50
2005,07,26,15,23,24.50
2005,07,26,15,24,24.50
2005,07,26,15,25,24.40
2005,07,26,15,26,24.30
2005,07,26,15,27,24.30
2005,07,26,15,28,24.30
2005,07,26,15,29,24.30
2005,07,26,15,30,24.30
2005,07,26,15,31,24.30
2005,07,26,15,32,24.20
2005,07,26,15,33,24.10
2005,07,26,15,34,24.00
2005,07,26,15,35,23.80
2005,07,26,15,36,23.70
2005,07,26,15,37,23.70
2005,07,26,15,38,23.70
2005,07,26,15,39,23.70
2005,07,26,15,40,23.70
2005,07,26,15,41,23.70
2005,07,26,15,42,23.70
2005,07,26,15,43,23.80
2005,07,26,15,44,24.00
2005,07,26,15,45,24.20
2005,07,26,15,46,24.20
2005,07,26,15,47,24.20
2005,07,26,15,48,24.20
2005,07,26,15,49,24.60
2005,07,26,15,50,24.70
2005,07,26,15,51,24.80
2005,07,26,15,52,24.90
2005,07,26,15,53,25.00
2005,07,26,15,54,25.00
2005,07,26,15,55,24.90
2005,07,26,15,56,24.90
2005,07,26,15,57,24.90
2005,07,26,15,58,24.80
2005,07,26,15,59,24.80
2005,07,26,16,00,24.80
2005,07,26,16,01,24.80
2005,07,26,16,02,24.70
2005,07,26,16,03,24.70
2005,07,26,16,04,24.60
2005,07,26,16,05,24.70
2005,07,26,16,06,24.80
2005,07,26,16,07,24.90
2005,07,26,16,08,24.90
2005,07,26,16,09,24.90
2005,07,26,16,10,24.90
2005,07,26,16,11,24.90
2005,07,26,16,12,25.00
2005,07,26,16,13,25.10
2005,07,26,16,14,25.10
2005,07,26,16,15,25.10
2005,07,26,16,16,25.10
2005,07,26,16,17,25.20
2005,07,26,16,18,25.10
2005,07,26,16,19,25.00
2005,07,26,16,20,24.90
2005,07,26,16,21,24.80
2005,07,26,16,22,24.70
2005,07,26,16,23,24.70
2005,07,26,16,24,24.60
2005,07,26,16,25,24.60
2005,07,26,16,26,24.60
2005,07,26,16,27,24.60
2005,07,26,16,28,24.60
2005,07,26,16,29,24.70
2005,07,26,16,30,24.70
2005,07,26,16,31,24.70
2005,07,26,16,32,24.80
2005,07,26,16,33,24.80
2005,07,26,16,34,24.80
2005,07,26,16,35,24.90
2005,07,26,16,36,24.90
2005,07,26,16,37,25.00
2005,07,26,16,38,25.10
2005,07,26,16,39,25.10
2005,07,26,16,40,25.20
2005,07,26,16,41,25.20
2005,07,26,16,42,25.20
2005,07,26,16,43,25.30
2005,07,26,16,44,25.30
2005,07,26,16,45,25.40
2005,07,26,16,46,25.50
2005,07,26,16,47,25.60
2005,07,26,16,48,25.60
2005,07,26,16,49,25.70
2005,07,26,16,50,25.70
2005,07,26,16,51,25.80
2005,07,26,16,52,25.70
2005,07,26,16,53,25.70
2005,07,26,16,54,25.70
2005,07,26,16,55,25.70
2005,07,26,16,56,25.70
2005,07,26,16,57,25.50
2005,07,26,16,58,25.40
2005,07,26,16,59,25.30
2005,07,26,17,00,25.20
2005,07,26,17,01,25.20
2005,07,26,17,02,25.30
2005,07,26,17,03,25.40
2005,07,26,17,04,25.60
2005,07,26,17,05,25.70
2005,07,26,17,06,25.80
2005,07,26,17,07,25.80
2005,07,26,17,08,25.70
2005,07,26,17,09,25.70
2005,07,26,17,10,25.70
2005,07,26,17,11,25.70
2005,07,26,17,12,25.60
2005,07,26,17,13,25.60
2005,07,26,17,14,25.40
2005,07,26,17,15,25.20
2005,07,26,17,16,25.20
2005,07,26,17,17,25.20
2005,07,26,17,18,25.20
2005,07,26,17,19,25.30
2005,07,26,17,20,25.30